#timestamp,LO_Frequency,Hit,StdDev 
1457323215.0,286047008.7,Y
1457323215.9,286047008.7,P
1457323235.8,286047002.1,P
1457323255.6,286047003.9,N
1457323275.4,286047003.3,N
1457323295.3,286047006.0,N
1457323315.1,286047005.9,N
1457323316.0,286047005.9,N
1457323335.8,286047003.7,N
1457323355.7,286047004.0,N
1457323375.5,286047005.9,Y
1457323395.4,286046998.7,P
1457323415.2,286047001.5,N
1457323435.0,286047004.1,N
1457323435.9,286047004.1,N
1457323455.7,286047003.3,N
1457323475.6,286047004.0,N
1457323495.4,286047002.3,N
1457323515.2,286047000.5,N
1457323535.1,286046999.2,N
1457323536.0,286046999.2,N
1457323555.8,286046994.7,N
1457323575.6,286046993.8,N
1457323595.5,286046994.6,N
1457323615.3,286046992.0,N
1457323635.1,286046993.0,N
1457323655.9,286046995.9,N
1457323675.7,286046995.7,N
1457323695.5,286046994.7,N
1457323715.4,286046993.7,N
1457323735.2,286046995.9,N
1457323755.0,286046997.4,N
1457323755.9,286046997.4,N
1457323775.7,286046997.0,N
1457323795.6,286046995.5,N
1457323815.4,286046997.4,N
1457323835.2,286046995.8,N
1457323855.1,286046995.9,N
1457323856.0,286046995.9,N
1457323875.8,286046993.4,N
1457323895.6,286046994.1,N
1457323915.5,286046992.9,N
1457323935.3,286046993.0,N
1457323955.1,286046994.4,N
1457323975.9,286046994.8,N
1457323995.7,286046993.8,N
1457324015.5,286046991.9,N
1457324035.4,286046992.5,Y
1457324055.2,286046997.6,P
1457324075.0,286046995.8,P
1457324075.9,286046995.8,P
1457324095.8,286046999.1,N
1457324115.6,286047000.9,N
1457324135.4,286047003.9,N
1457324155.3,286047003.8,N
1457324175.1,286047005.6,N
1457324176.0,286047005.6,N
1457324195.8,286047002.9,N
1457324215.7,286047007.3,N
1457324235.5,286047004.7,N
1457324255.3,286047006.5,N
1457324275.1,286047009.2,N
1457324295.9,286047012.0,N
1457324315.7,286047015.1,Y
1457324335.5,286047009.4,P
1457324355.4,286047011.2,P
1457324375.2,286047011.0,P
1457324395.1,286047010.9,Y
1457324396.0,286047010.9,P
1457324415.8,286047004.1,P
1457324435.6,286047003.0,N
1457324455.5,286047010.8,Y
1457324475.3,286047004.4,P
1457324495.1,286047000.6,N
1457324515.9,286047005.9,N
1457324535.7,286047007.4,Y
1457324555.5,286047002.2,P
1457324575.4,286047002.2,N
1457324595.2,286047003.4,P
1457324615.0,286047006.7,Y
1457324615.9,286047006.7,P
1457324635.8,286046998.1,N
1457324655.6,286046996.1,N
1457324675.4,286046997.8,N
1457324695.3,286046999.4,N
1457324715.1,286046995.3,N
1457324716.0,286046995.3,N
1457324735.8,286046991.7,N
1457324755.7,286046991.3,N
1457324775.5,286046992.1,N
1457324795.3,286046992.2,N
1457324815.2,286046993.5,N
1457324835.9,286046994.6,N
1457324855.7,286046995.5,N
1457324875.5,286046992.8,N
1457324895.4,286046993.1,N
1457324915.2,286046993.7,N
1457324935.0,286046991.7,N
1457324935.9,286046991.7,N
1457324955.8,286046993.7,N
1457324975.6,286046993.4,N
1457324995.4,286046995.0,N
1457325015.3,286046994.4,N
1457325035.1,286046993.4,N
1457325036.0,286046993.4,N
1457325055.8,286046997.2,N
1457325075.7,286046998.7,N
1457325095.5,286046998.8,N
1457325115.3,286046996.2,N
1457325135.2,286046994.2,N
1457325155.9,286046993.6,N
1457325175.7,286046994.1,N
1457325195.6,286046993.3,Y
1457325215.4,286047001.2,P
1457325235.2,286047000.6,N
1457325255.1,286046999.0,N
1457325256.0,286046999.0,N
1457325275.8,286046998.5,N
1457325295.6,286046999.4,N
1457325315.4,286046996.7,N
1457325335.3,286046998.8,N
1457325355.1,286046999.1,N
1457325375.8,286046995.1,N
1457325395.7,286046997.1,N
1457325415.5,286046995.4,N
1457325435.3,286046995.6,N
1457325455.2,286046997.3,N
1457325475.9,286046998.7,N
1457325495.7,286046999.3,N
1457325515.6,286046997.8,N
1457325535.4,286046995.1,N
1457325555.2,286046998.8,N
1457325575.0,286046997.1,N
1457325576.0,286046997.1,N
1457325595.8,286046999.6,N
1457325615.6,286047000.4,N
1457325635.4,286046998.0,N
1457325655.3,286046999.6,N
1457325675.1,286046999.3,N
1457325695.8,286047000.3,N
1457325715.7,286047000.9,N
1457325735.5,286046998.4,N
1457325755.3,286046996.5,N
1457325775.2,286046997.8,N
1457325795.9,286046994.2,Y
1457325815.7,286046994.5,P
1457325835.6,286046992.3,P
1457325855.4,286046993.9,N
1457325875.2,286046993.1,Y
1457325895.1,286046997.2,P
1457325896.0,286046997.2,N
1457325915.8,286046997.5,N
1457325935.6,286046996.9,N
1457325955.5,286046999.0,N
1457325975.3,286046998.3,N
1457325995.1,286046999.7,N
1457326015.9,286046996.9,N
1457326035.7,286046998.4,N
1457326055.5,286046998.8,N
1457326075.3,286046998.4,N
1457326095.2,286047002.5,N
1457326115.0,286047004.3,N
1457326115.9,286047004.3,N
1457326135.7,286047003.9,N
1457326155.6,286047007.2,N
1457326175.4,286047009.0,N
1457326195.2,286047006.8,N
1457326215.1,286047009.1,N
1457326216.0,286047009.1,N
1457326235.8,286047006.5,N
1457326255.6,286047006.9,N
1457326275.5,286047007.7,N
1457326295.3,286047009.0,N
1457326315.1,286047007.1,N
1457326335.9,286047007.8,N
1457326355.7,286047009.9,N
1457326375.5,286047010.1,N
1457326395.3,286047010.1,N
1457326415.2,286047013.3,N
1457326435.0,286047012.9,N
1457326435.9,286047012.9,N
1457326455.7,286047013.4,N
1457326475.6,286047014.2,N
1457326495.4,286047017.3,Y
1457326515.3,286047013.9,P
1457326535.1,286047011.0,N
1457326536.0,286047011.0,P
1457326555.8,286047013.5,Y
1457326575.7,286047001.1,P
1457326595.5,286046996.6,N
1457326615.3,286046997.3,N
1457326635.2,286047001.0,N
1457326655.9,286047004.3,N
1457326675.7,286047001.1,N
1457326695.5,286046996.7,N
1457326715.4,286046996.6,N
1457326735.2,286046995.0,N
1457326755.0,286046995.5,N
1457326755.9,286046995.5,N
1457326775.8,286046993.5,N
1457326795.6,286046997.4,N
